| time (UTC) | temp C | wind direction | speed KPH | gust KPH | rain 1hr cm | rain 24hr cm | rain mn cm | humidity % | barometer mb |
| 20260507211502 | 13 | 0 | 0.0 | 0.0 | 0.00 | 0.00 | 0.00 | 82 | 1013.8 |
| 20260507210005 | 13 | 0 | 0.0 | 0.0 | 0.00 | 0.00 | 0.00 | 80 | 1014.1 |
| 20260507204503 | 15 | 0 | 0.0 | 0.0 | 0.00 | 0.00 | 0.00 | 78 | 1013.9 |
| 20260507203005 | 15 | 0 | 0.0 | 0.0 | 0.00 | 0.00 | 0.00 | 76 | 1013.9 |
| 20260507201503 | 15 | 181 | 1.6 | 8.0 | 0.00 | 0.00 | 0.00 | 75 | 1013.7 |
| 20260507200005 | 15 | 0 | 0.0 | 0.0 | 0.00 | 0.00 | 0.00 | 73 | 1013.7 |
| 20260507194503 | 16 | 135 | 1.6 | 6.4 | 0.00 | 0.00 | 0.00 | 72 | 1013.5 |
| 20260507193005 | 16 | 0 | 0.0 | 0.0 | 0.00 | 0.00 | 0.00 | 71 | 1013.4 |
| 20260507191502 | 17 | 181 | 0.0 | 3.2 | 0.00 | 0.00 | 0.00 | 68 | 1013.1 |
| 20260507190006 | 17 | 0 | 0.0 | 0.0 | 0.00 | 0.00 | 0.00 | 66 | 1012.9 |
| 20260507184502 | 18 | 181 | 0.0 | 4.8 | 0.00 | 0.00 | 0.00 | 65 | 1012.7 |
| 20260507183005 | 19 | 181 | 1.6 | 3.2 | 0.00 | 0.00 | 0.00 | 63 | 1012.4 |
| 20260507181502 | 20 | 165 | 3.2 | 6.4 | 0.00 | 0.00 | 0.00 | 58 | 1012.3 |
| 20260507180005 | 21 | 0 | 0.0 | 0.0 | 0.00 | 0.00 | 0.00 | 53 | 1012.1 |
| 20260507174503 | 22 | 203 | 0.0 | 1.6 | 0.00 | 0.00 | 0.00 | 50 | 1011.7 |
| 20260507173005 | 23 | 181 | 0.0 | 3.2 | 0.00 | 0.00 | 0.00 | 47 | 1011.5 |
| 20260507171503 | 24 | 214 | 3.2 | 8.0 | 0.00 | 0.00 | 0.00 | 45 | 1011.6 |
| 20260507170005 | 25 | 0 | 0.0 | 0.0 | 0.00 | 0.00 | 0.00 | 44 | 1011.5 |
| 20260507164502 | 25 | 0 | 0.0 | 0.0 | 0.00 | 0.00 | 0.00 | 45 | 1011.4 |
| 20260507163005 | 25 | 0 | 0.0 | 0.0 | 0.00 | 0.00 | 0.00 | 45 | 1011.3 |
| 20260507161504 | 25 | 161 | 1.6 | 3.2 | 0.00 | 0.00 | 0.00 | 44 | 1011.4 |
| 20260507160005 | 25 | 263 | 1.6 | 4.8 | 0.00 | 0.00 | 0.00 | 43 | 1011.5 |
| 20260507154503 | 26 | 156 | 1.6 | 3.2 | 0.00 | 0.00 | 0.00 | 43 | 1011.4 |
| 20260507153005 | 26 | 225 | 1.6 | 6.4 | 0.00 | 0.00 | 0.00 | 44 | 1011.4 |
| 20260507151503 | 24 | 225 | 0.0 | 8.0 | 0.00 | 0.00 | 0.00 | 46 | 1011.5 |
| 20260507150005 | 24 | 225 | 0.0 | 8.0 | 0.00 | 0.00 | 0.00 | 46 | 1011.7 |
| 20260507144503 | 23 | 181 | 0.0 | 9.7 | 0.00 | 0.00 | 0.00 | 50 | 1011.7 |
| 20260507143005 | 22 | 156 | 0.0 | 3.2 | 0.00 | 0.00 | 0.00 | 50 | 1011.6 |
| 20260507141503 | 23 | 181 | 0.0 | 3.2 | 0.00 | 0.00 | 0.00 | 49 | 1011.7 |
| 20260507140006 | 23 | 217 | 3.2 | 8.0 | 0.00 | 0.00 | 0.00 | 47 | 1011.7 |
| 20260507134503 | 24 | 281 | 3.2 | 8.0 | 0.00 | 0.00 | 0.00 | 46 | 1011.7 |
| 20260507133005 | 24 | 203 | 1.6 | 6.4 | 0.00 | 0.00 | 0.00 | 46 | 1011.8 |
| 20260507131503 | 23 | 225 | 0.0 | 8.0 | 0.00 | 0.00 | 0.00 | 49 | 1011.8 |
| 20260507130005 | 23 | 292 | 1.6 | 4.8 | 0.00 | 0.00 | 0.00 | 48 | 1011.8 |
| 20260507124502 | 25 | 224 | 3.2 | 8.0 | 0.00 | 0.00 | 0.00 | 45 | 1011.8 |
| 20260507121502 | 25 | 265 | 3.2 | 9.7 | 0.00 | 0.00 | 0.00 | 46 | 1011.9 |
| 20260507120005 | 24 | 207 | 1.6 | 9.7 | 0.00 | 0.13 | 0.00 | 47 | 1012.0 |
| 20260507114503 | 23 | 247 | 0.0 | 1.6 | 0.00 | 0.41 | 0.00 | 50 | 1012.2 |
| 20260507113006 | 24 | 237 | 4.8 | 9.7 | 0.00 | 0.53 | 0.00 | 48 | 1012.3 |
| 20260507111503 | 23 | 231 | 6.4 | 9.7 | 0.00 | 0.53 | 0.00 | 50 | 1012.4 |
| 20260507110005 | 23 | 213 | 6.4 | 9.7 | 0.00 | 0.53 | 0.00 | 50 | 1012.5 |
| 20260507104502 | 23 | 185 | 8.0 | 11.3 | 0.00 | 0.53 | 0.00 | 51 | 1012.7 |
| 20260507103005 | 23 | 247 | 0.0 | 1.6 | 0.00 | 0.53 | 0.00 | 52 | 1012.8 |
| 20260507101502 | 23 | 218 | 3.2 | 8.0 | 0.00 | 0.53 | 0.00 | 52 | 1013.0 |
| 20260507100005 | 22 | 261 | 3.2 | 8.0 | 0.00 | 0.53 | 0.00 | 54 | 1013.0 |
| 20260507094502 | 22 | 257 | 3.2 | 6.4 | 0.00 | 0.61 | 0.00 | 55 | 1013.1 |
| 20260507093004 | 22 | 205 | 8.0 | 11.3 | 0.00 | 0.61 | 0.00 | 55 | 1013.0 |
| 20260507091503 | 21 | 259 | 4.8 | 12.9 | 0.00 | 0.61 | 0.00 | 55 | 1012.9 |
| 20260507090005 | 21 | 251 | 9.7 | 9.7 | 0.00 | 0.61 | 0.00 | 56 | 1012.9 |
| 20260507084503 | 21 | 265 | 3.2 | 6.4 | 0.00 | 0.61 | 0.00 | 59 | 1013.0 |
| 20260507083005 | 20 | 272 | 6.4 | 12.9 | 0.00 | 0.61 | 0.00 | 60 | 1013.0 |
| 20260507081503 | 20 | 284 | 4.8 | 9.7 | 0.00 | 0.61 | 0.00 | 62 | 1012.8 |
| 20260507074503 | 19 | 0 | 0.0 | 0.0 | 0.00 | 0.61 | 0.00 | 69 | 1012.9 |
| 20260507073004 | 18 | 283 | 1.6 | 3.2 | 0.00 | 0.61 | 0.00 | 75 | 1013.0 |
| 20260507071503 | 17 | 0 | 0.0 | 0.0 | 0.00 | 0.61 | 0.00 | 78 | 1013.0 |
| 20260507070009 | 17 | 203 | 0.0 | 4.8 | 0.00 | 0.61 | 0.00 | 81 | 1012.7 |
| 20260507064502 | 16 | 0 | 0.0 | 0.0 | 0.00 | 0.61 | 0.00 | 88 | 1012.7 |
| 20260506221503 | 13 | 0 | 0.0 | 0.0 | 0.00 | 0.71 | 0.00 | 91 | 1010.4 |
| 20260506220005 | 13 | 0 | 0.0 | 0.0 | 0.00 | 0.71 | 0.00 | 91 | 1010.3 |
| 20260506214503 | 13 | 0 | 0.0 | 0.0 | 0.00 | 0.71 | 0.71 | 91 | 1010.2 |
| 20260506213005 | 13 | 0 | 0.0 | 0.0 | 0.00 | 0.71 | 0.71 | 91 | 1010.2 |